TimeCST,TemperatureF,Dew PointF,Humidity,Sea Level PressureIn,VisibilityMPH,Wind Direction,Wind SpeedMPH,Gust SpeedMPH,PrecipitationIn,Events,Conditions,WindDirDegrees,DateUTC
7:35 AM,41.0,26.6,57,29.77,10.0,NW,15.0,-,N/A,,Clear,320,2012-12-06 13:35:00
7:55 AM,39.2,26.6,61,29.78,10.0,NW,16.1,-,N/A,,Clear,320,2012-12-06 13:55:00
8:15 AM,37.4,23.0,56,29.79,10.0,NNW,16.1,-,N/A,,Clear,330,2012-12-06 14:15:00
8:35 AM,37.4,23.0,56,29.79,10.0,NNW,19.6,-,N/A,,Clear,330,2012-12-06 14:35:00
8:55 AM,37.4,23.0,56,29.80,10.0,NNW,17.3,-,N/A,,Clear,330,2012-12-06 14:55:00
9:15 AM,41.0,23.0,49,29.81,10.0,NNW,20.7,-,N/A,,Clear,330,2012-12-06 15:15:00
9:35 AM,41.0,23.0,49,29.82,10.0,NNW,17.3,-,N/A,,Clear,330,2012-12-06 15:35:00
9:55 AM,42.8,23.0,46,29.82,10.0,NNW,15.0,-,N/A,,Clear,340,2012-12-06 15:55:00
10:15 AM,46.4,23.0,40,29.82,10.0,NNW,20.7,-,N/A,,Clear,340,2012-12-06 16:15:00
10:35 AM,50.0,23.0,35,29.83,10.0,North,19.6,24.2,N/A,,Clear,350,2012-12-06 16:35:00
10:55 AM,51.8,23.0,33,29.84,10.0,North,24.2,27.6,N/A,,Clear,360,2012-12-06 16:55:00
11:15 AM,53.6,23.0,30,29.84,10.0,North,20.7,27.6,N/A,,Clear,360,2012-12-06 17:15:00
11:35 AM,55.4,24.8,31,29.85,10.0,North,19.6,25.3,N/A,,Clear,360,2012-12-06 17:35:00
11:55 AM,55.4,24.8,31,29.85,10.0,North,19.6,25.3,N/A,,Clear,10,2012-12-06 17:55:00
12:15 PM,55.4,26.6,33,29.85,10.0,North,17.3,23.0,N/A,,Clear,10,2012-12-06 18:15:00
12:35 PM,57.2,26.6,31,29.84,10.0,North,19.6,25.3,N/A,,Clear,360,2012-12-06 18:35:00
12:55 PM,59.0,26.6,29,29.84,10.0,North,18.4,25.3,N/A,,Clear,360,2012-12-06 18:55:00
1:15 PM,59.0,26.6,29,29.84,10.0,North,23.0,28.8,N/A,,Clear,360,2012-12-06 19:15:00
1:35 PM,59.0,26.6,29,29.84,10.0,North,24.2,29.9,N/A,,Clear,360,2012-12-06 19:35:00
1:55 PM,59.0,28.4,31,29.84,10.0,North,18.4,25.3,N/A,,Clear,10,2012-12-06 19:55:00
2:15 PM,59.0,26.6,29,29.84,10.0,North,20.7,29.9,N/A,,Clear,10,2012-12-06 20:15:00
2:35 PM,59.0,26.6,29,29.83,10.0,North,23.0,26.5,N/A,,Clear,360,2012-12-06 20:35:00
2:55 PM,59.0,26.6,29,29.84,10.0,North,23.0,28.8,N/A,,Clear,360,2012-12-06 20:55:00
3:15 PM,57.2,28.4,33,29.85,10.0,North,19.6,25.3,N/A,,Clear,360,2012-12-06 21:15:00
3:35 PM,57.2,28.4,33,29.85,10.0,North,20.7,28.8,N/A,,Clear,360,2012-12-06 21:35:00
3:55 PM,55.4,28.4,36,29.84,10.0,North,23.0,27.6,N/A,,Clear,360,2012-12-06 21:55:00
4:15 PM,53.6,28.4,38,29.86,10.0,North,24.2,27.6,N/A,,Clear,360,2012-12-06 22:15:00
4:35 PM,53.6,30.2,41,29.86,10.0,North,21.9,25.3,N/A,,Clear,360,2012-12-06 22:35:00
4:55 PM,51.8,28.4,41,29.87,10.0,North,15.0,18.4,N/A,,Clear,10,2012-12-06 22:55:00
5:15 PM,51.8,28.4,41,29.88,10.0,NNE,11.5,-,N/A,,Clear,20,2012-12-06 23:15:00
5:35 PM,50.0,28.4,43,29.89,10.0,North,8.1,-,N/A,,Clear,10,2012-12-06 23:35:00
5:55 PM,46.4,28.4,50,29.90,10.0,North,8.1,-,N/A,,Clear,10,2012-12-06 23:55:00
6:15 PM,46.4,28.4,50,29.91,10.0,North,6.9,-,N/A,,Clear,360,2012-12-07 00:15:00
6:35 PM,44.6,28.4,53,29.92,10.0,North,5.8,-,N/A,,Clear,10,2012-12-07 00:35:00
6:55 PM,42.8,28.4,57,29.93,10.0,North,4.6,-,N/A,,Clear,10,2012-12-07 00:55:00
7:15 PM,42.8,28.4,57,29.93,10.0,North,5.8,-,N/A,,Clear,360,2012-12-07 01:15:00
7:35 PM,41.0,28.4,61,29.94,10.0,North,4.6,-,N/A,,Clear,10,2012-12-07 01:35:00
7:55 PM,41.0,26.6,57,29.94,10.0,North,3.5,-,N/A,,Clear,360,2012-12-07 01:55:00
8:35 PM,37.4,24.8,60,29.94,10.0,North,9.2,-,N/A,,Clear,360,2012-12-07 02:35:00
8:55 PM,39.2,26.6,61,29.94,10.0,North,9.2,-,N/A,,Clear,360,2012-12-07 02:55:00
9:15 PM,41.0,26.6,57,29.93,10.0,North,9.2,-,N/A,,Clear,10,2012-12-07 03:15:00
9:35 PM,41.0,26.6,57,29.93,10.0,North,6.9,-,N/A,,Clear,10,2012-12-07 03:35:00
9:55 PM,41.0,23.0,49,29.93,10.0,North,9.2,-,N/A,,Clear,10,2012-12-07 03:55:00
10:15 PM,41.0,23.0,49,29.94,10.0,North,9.2,-,N/A,,Clear,10,2012-12-07 04:15:00
10:35 PM,39.2,23.0,52,29.94,10.0,North,8.1,-,N/A,,Clear,10,2012-12-07 04:35:00
10:55 PM,39.2,23.0,52,29.95,10.0,North,5.8,-,N/A,,Clear,10,2012-12-07 04:55:00
11:15 PM,37.4,23.0,56,29.94,10.0,North,4.6,-,N/A,,Clear,10,2012-12-07 05:15:00
11:35 PM,37.4,23.0,56,29.96,10.0,North,5.8,-,N/A,,Clear,10,2012-12-07 05:35:00
11:55 PM,35.6,23.0,60,29.94,10.0,NNE,5.8,-,N/A,,Scattered Clouds,20,2012-12-07 05:55:00